CST,Max TemperatureF,Mean TemperatureF,Min TemperatureF,Max Dew PointF,MeanDew PointF,Min DewpointF,Max Humidity, Mean Humidity, Min Humidity, Max Sea Level PressureIn, Mean Sea Level PressureIn, Min Sea Level PressureIn, Max VisibilityMiles, Mean VisibilityMiles, Min VisibilityMiles, Max Wind SpeedMPH, Mean Wind SpeedMPH, Max Gust SpeedMPH,PrecipitationIn, CloudCover, Events, WindDirDegrees
2013-2-1,33,18,3,25,11,-6,80,67,56,30.37,30.14,29.99,10,10,10,18,7,25,0.00,6,,193
2013-2-2,51,38,24,34,25,19,86,67,40,30.17,30.11,30.02,10,10,10,22,6,38,0.00,5,,298
2013-2-3,48,32,17,30,24,12,93,64,45,30.21,30.02,29.78,10,10,10,22,11,26,0.00,0,,238
2013-2-4,35,30,24,27,20,18,80,72,64,30.02,29.92,29.78,10,10,10,18,9,23,0.00,5,,307
2013-2-5,51,40,28,30,24,18,86,61,32,30.04,29.94,29.81,10,10,7,20,9,24,0.00,2,,290
2013-2-6,53,42,32,41,31,23,87,70,53,30.04,29.90,29.81,10,9,3,22,9,28,0.00,3,,174
2013-2-7,39,34,28,30,25,21,80,72,65,30.24,30.09,29.91,10,10,7,17,11,22,0.00,5,,353
2013-2-8,39,32,26,27,24,21,86,76,61,30.29,30.20,30.07,10,8,2,17,7,22,0.00,4,,131
2013-2-9,51,40,30,36,31,25,86,71,54,30.07,29.85,29.59,10,8,2,21,14,29,0.01,4,,153
2013-2-10,42,36,30,37,29,19,87,77,64,29.84,29.45,29.23,10,9,3,33,17,44,0.03,8,,262
2013-2-11,37,28,19,21,18,14,80,65,48,30.13,30.06,29.85,10,10,8,33,20,41,0.00,5,,311
2013-2-12,48,32,17,23,17,10,86,58,23,30.12,29.99,29.90,10,10,10,15,6,21,0.00,0,,265
2013-2-13,55,39,23,28,23,18,80,57,29,29.90,29.81,29.72,10,10,10,18,6,23,0.00,2,,261
2013-2-14,44,32,19,27,22,12,80,65,37,30.30,30.03,29.83,10,10,0,28,14,41,0.00,3,,302
2013-2-15,32,22,12,21,14,5,86,72,55,30.36,30.32,30.26,10,10,1,23,9,33,0.00,4,,302
2013-2-16,39,26,12,25,17,7,85,69,52,30.32,30.10,29.96,10,10,6,15,6,21,0.00,4,,199
2013-2-17,62,40,19,34,25,16,86,61,29,29.96,29.74,29.55,10,10,9,21,7,26,0.00,0,,148
2013-2-18,41,31,21,28,19,12,74,60,44,30.09,29.82,29.57,10,10,8,29,16,39,0.00,4,,332
2013-2-19,26,17,8,12,1,-6,73,54,29,30.35,30.26,30.10,10,10,10,23,16,31,0.00,0,,337
2013-2-20,23,13,3,14,4,-4,80,64,43,30.35,30.25,30.16,10,9,3,17,9,20,0.00,4,,90
2013-2-21,21,20,19,16,12,9,86,72,58,30.18,29.99,29.86,10,6,0,25,14,30,0.00,8,,59
2013-2-22,21,11,1,14,8,-6,85,74,63,30.01,29.96,29.87,10,9,2,15,11,20,0.00,2,,313
2013-2-23,33,14,-5,21,9,-11,86,74,60,29.97,29.86,29.78,10,8,0,13,3,,0.00,0,,206
2013-2-24,32,20,8,25,18,3,93,80,73,30.09,29.96,29.84,8,4,0,13,5,,0.04,6,,321
2013-2-25,35,28,21,27,22,18,86,77,65,30.09,30.02,29.92,10,6,2,14,6,,0.01,4,,9
2013-2-26,28,24,21,21,20,18,93,82,74,29.96,29.89,29.83,5,4,1,15,11,20,0.00,8,,358
2013-2-27,37,29,21,25,21,16,86,72,56,30.12,30.03,29.93,10,8,2,26,18,34,0.00,4,,327
2013-2-28,30,28,26,23,20,19,80,74,69,30.24,30.20,30.11,10,10,10,23,16,31,0.00,8,,339